Regional Weather Roundup
Issued by NWS

Home | Current Version | Previous Version | Graphics & Text | Print | Product List | Glossary On
Versions: 1 2 3 4 5 6 7 8 9 10 11 12 13 14 15 16 17 18 19 20 21 22 23 24 25 26 27 28 29 30 31 32 33 34 35 36 37 38 39 40 41 42 43 44 45 46 47 48 49 50
000
ASUS45 KABQ 270910
RWRNM
WEATHER ROUNDUP FOR NEW MEXICO
NATIONAL WEATHER SERVICE ALBUQUERQUE NM
300 AM MDT WED AUG 27 2014

NOTE: "FAIR" MEANS FEW OR NO CLOUDS BELOW 12,000 FEET AGL WITH NO
       SIGNIFICANT WEATHER OR OBSTRUCTIONS TO VISION.

      THIS PRODUCT IS RELEASED AS TWO VERSIONS.  ONE VERSION NEAR
      THE TOP OF THE HOUR CONTAINING PRELIMINARY DATA FROM ALBUQUERQUE
      AND OTHER STATIONS.  A FINAL VERSION WITH ADDITIONAL DATA IS
      ISSUED ABOUT 10 MINUTES AFTER THE HOUR.

NMZ501-503-504-510>518-271000-
NORTHWEST PLATEAU/NORTHCENTRAL MOUNTAINS

CITY           SKY/WX    TMP DP  RH WIND       PRES   REMARKS
FARMINGTON     CLEAR     54  53  97 W6        30.28S
LOS ALAMOS     CLOUDY    55  55 100 SE3       30.37S
SANTA FE       RAIN      58  56  93 NW3       30.32R FOG
TAOS           CLOUDY    55  52  88 E10       30.35S
ANGEL FIRE     RAIN      52  49  90 SE6       30.42R

$$
NMZ402-403-502-505>509-271000-
WESTCENTRAL MOUNTAINS/SOUTHWEST MOUNTAINS

CITY           SKY/WX    TMP DP  RH WIND       PRES   REMARKS
GALLUP         CLEAR     50  48  93 CALM      30.32F
SILVER CITY    CLOUDY    66  57  72 CALM      30.28S

$$
NMZ407-409-411-412-271000-
SOUTHERN DESERTS

CITY           SKY/WX    TMP DP  RH WIND       PRES   REMARKS
LORDSBURG      FAIR      63  61  94 CALM      30.19S
DEMING         PTCLDY    67  60  78 CALM      30.19S
LAS CRUCES     CLOUDY    69  61  77 CALM      30.21S
HOLLOMAN AFB   CLOUDY    68  68  99 SE8       30.19R
ALAMOGORDO     CLOUDY    68  63  83 S8        30.21S
T OR C         HVY RAIN  63  62  97 N6        30.25R FOG

$$
NMZ519>523-271000-
CENTRAL VALLEYS/CENTRAL HIGHLANDS

CITY           SKY/WX    TMP DP  RH WIND       PRES   REMARKS
ALBUQUERQUE    CLOUDY    62  58  86 E7        30.26F
DOUBLE EAGLE   LGT RAIN  57  56  97 E7        30.28F
MORIARTY ARPT  RAIN      58  56  91 CALM      30.34S
CLINES CORNERS RAIN      56  54  93 W15       30.35R
BELEN          FAIR      60  58  95 CALM      30.26S
SOCORRO        LGT RAIN  61  60  96 SW5       30.25F

$$
NMZ524>526-539-540-271000-
SOUTHCENTRAL MOUNTAINS

CITY           SKY/WX    TMP DP  RH WIND       PRES   REMARKS
RUIDOSO        CLOUDY    59  55  88 NW10      30.36R

$$
NMZ527>531-271000-
NORTHEAST HIGHLANDS/NORTHEAST PLAINS

CITY           SKY/WX    TMP DP  RH WIND       PRES   REMARKS
LAS VEGAS      CLOUDY    57  56  96 SW3       30.33R
RATON          CLOUDY    59  57  93 SW5       30.27F
CLAYTON        CLOUDY    63  61  93 S6        30.21S

$$
NMZ532>537-271000-
EASTCENTRAL PLAINS

CITY           SKY/WX    TMP DP  RH WIND       PRES   REMARKS
TUCUMCARI        N/A     68  63  84 E5        30.16S
CANNON AFB     MOCLDY    68  63  83 E5        30.19F
CLOVIS AIRPORT   N/A     66  61  82 E6        30.21F

$$
NMZ028-029-538-271000-
SOUTHEAST PLAINS

CITY           SKY/WX    TMP DP  RH WIND       PRES   REMARKS
ROSWELL        MOCLDY    69  66  90 E5        30.13R
CARLSBAD       MOCLDY    71  65  81 W7        30.09F
HOBBS          CLOUDY    72  64  78 NE5       30.13S


$$



USA.gov is the U.S. government's official web portal to all federal, state and local government web resources and services.